Location: Lac Echo
(45.9375°N, 75.4580°W)
Time: 09:04:12
(UTC-05:00)

Amateur Radio Satellites - All Passes

Search period start: 12 February 2016 08:34
Search period end: 13 February 2016 08:34
Location: Lac Echo, 45.9375°N, 75.4580°W

Satellite Date Start Highest point End Downlink Frequencies (MHz)
Time Altitude Azimuth
ZACube-1 12 Feb 08:49:29 08:52:48 22° 93° (E) 08:56:09 437.345
DELFI C3 12 Feb 08:51:51 08:54:21 16° 91° (E) 08:56:50 145.870
FUNcube-1 12 Feb 08:57:01 09:00:32 25° 95° (E) 09:04:04 145.935
COMPASS 1 12 Feb 09:06:22 09:10:35 69° 286° (WNW) 09:14:47 437.405
O/OREOS (USA 219) 12 Feb 09:11:47 09:14:47 17° 311° (NW) 09:17:48 437.305
ANTELSAT 12 Feb 09:14:24 09:18:35 53° 72° (ENE) 09:22:44 437.575/2403.000
AIST 1 12 Feb 09:15:31 09:18:24 17° 85° (E) 09:21:17
HO-68 12 Feb 09:18:22 09:25:26 59° 293° (WNW) 09:32:28 435.675
DOVE 4 12 Feb 09:19:26 09:21:48 15° 299° (WNW) 09:24:07 437.250
TIGRISAT 12 Feb 09:20:19 09:24:32 58° 73° (ENE) 09:28:44 435.000
CUTE 1.7 + AOD 2 12 Feb 09:24:02 09:27:42 28° 293° (WNW) 09:31:20 437.475
Oscar 11 12 Feb 09:25:33 09:29:54 66° 101° (E) 09:34:13 145.826/435.025
SEEDS 12 Feb 09:25:36 09:29:26 33° 291° (WNW) 09:33:16 437.485
AAUSAT CUBESAT 2 12 Feb 09:32:39 09:36:41 44° 289° (WNW) 09:40:40 437.432
UWE-3 12 Feb 09:36:59 09:41:13 84° 284° (WNW) 09:45:31 435.000/436.395/437.385
BUGSAT 1 12 Feb 09:37:18 09:39:14 13° 60° (ENE) 09:41:10 437.445
CUBEBUG 2 12 Feb 09:41:58 09:46:04 54° 287° (WNW) 09:50:15 437.445
Cosmos 2499 12 Feb 09:44:35 09:53:23 85° 98° (E) 10:02:19 435.465 / 435.565
POLYITAN 1 12 Feb 09:47:37 09:51:21 31° 68° (ENE) 09:55:05 437.675
QB50P2 12 Feb 09:48:04 09:51:51 32° 68° (ENE) 09:55:38 145.880/145.840
CINEMA 3 12 Feb 09:54:03 09:56:47 17° 297° (WNW) 09:59:31 145.822/145.860
AO-85 12 Feb 09:55:23 10:00:45 72° 123° (ESE) 10:06:15 145.980
PCSat 12 Feb 09:59:44 10:04:52 46° 115° (ESE) 10:10:04 145.827
SO-50 12 Feb 10:04:43 10:06:05 11° 18° (NNE) 10:07:27 436.795
UNISAT 6 12 Feb 10:06:10 10:10:17 44° 261° (W) 10:14:23 437.425
RS-15 12 Feb 10:07:14 10:16:56 37° 106° (ESE) 10:27:03 29.354- 29.394
POPSAT HIP 1 12 Feb 10:16:39 10:20:49 60° 74° (ENE) 10:25:00 437.405
GONETS M04 12 Feb 10:16:49 10:24:35 35° 293° (WNW) 10:32:27
NANOSAT C BR1 12 Feb 10:19:38 10:23:49 64° 73° (ENE) 10:27:59 145.865
DUCHIFAT 1 12 Feb 10:19:52 10:24:01 61° 73° (ENE) 10:28:11 145.980
HUMSAT D 12 Feb 10:20:48 10:24:58 62° 101° (ESE) 10:29:08 437.325/437.525
ZACube-1 12 Feb 10:25:19 10:29:13 37° 290° (WNW) 10:33:10 437.345
DELFI C3 12 Feb 10:25:37 10:29:32 48° 288° (WNW) 10:33:26 145.870
QB50P1 12 Feb 10:28:58 10:33:12 83° 73° (ENE) 10:37:27 145.935-145.965
FUNcube-1 12 Feb 10:33:03 10:36:51 33° 291° (WNW) 10:40:41 145.935
Oscar 19 12 Feb 10:43:40 10:44:57 11° 53° (NE) 10:46:15 437.125/150
VELOX 1 12 Feb 10:46:01 10:49:32 23° 94° (E) 10:53:01 145.980
AIST 1 12 Feb 10:51:21 10:55:36 47° 283° (WNW) 10:59:54
ANTELSAT 12 Feb 10:53:01 10:55:39 16° 269° (W) 10:58:15 437.575/2403.000
DANDE 12 Feb 10:54:25 10:58:06 15° 50° (NE) 11:01:23 436.750
TIGRISAT 12 Feb 10:59:18 11:01:38 14° 270° (W) 11:03:57 435.000
UKube-1 12 Feb 11:00:51 11:04:36 28° 96° (E) 11:08:20 .
AISAT 12 Feb 11:02:50 11:06:53 34° 97° (E) 11:10:52 437.250
Oscar 11 12 Feb 11:03:06 11:05:32 15° 299° (WNW) 11:07:58 145.826/435.025
SPROUT 12 Feb 11:07:10 11:08:42 12° 88° (E) 11:10:13 437.525
HO-68 12 Feb 11:08:10 11:11:44 15° 314° (NW) 11:15:17 435.675
BUGSAT 1 12 Feb 11:09:55 11:14:06 71° 257° (WSW) 11:18:16 437.445
CUBEBUG 1 12 Feb 11:14:36 11:18:41 37° 97° (E) 11:22:42 437.445
DX 1 12 Feb 11:17:25 11:21:40 49° 100° (E) 11:25:52 434.975-435.025
POLYITAN 1 12 Feb 11:23:37 11:27:11 26° 265° (W) 11:30:45 437.675
QB50P2 12 Feb 11:24:10 11:27:42 25° 265° (W) 11:31:14 145.880/145.840
ESTCUBE 1 12 Feb 11:35:15 11:39:51 82° 105° (ESE) 11:44:22 437.505/2401.250
Gurwin Techsat 1B 12 Feb 11:35:21 11:37:42 13° 55° (NE) 11:40:03 435.225
JAS-2 12 Feb 11:36:35 11:42:52 32° 63° (ENE) 11:48:39 435.910
AO-85 12 Feb 11:37:11 11:41:50 27° 323° (NW) 11:46:30 145.980
CUSAT 1 12 Feb 11:40:02 11:45:33 40° 68° (ENE) 11:49:45 437.405
50 SAT 12 Feb 11:40:17 11:44:06 72° 285° (WNW) 11:47:53 437.505
Cosmos 2499 12 Feb 11:40:39 11:47:39 25° 299° (WNW) 11:54:42 435.465 / 435.565
PCSat 12 Feb 11:43:32 11:48:26 33° 315° (NW) 11:53:23 145.827
SO-50 12 Feb 11:43:47 11:48:09 32° 41° (NE) 11:52:24 436.795
POPSAT HIP 1 12 Feb 11:54:51 11:57:01 14° 270° (W) 11:59:11 437.405
HUMSAT D 12 Feb 11:57:50 12:00:09 15° 298° (WNW) 12:02:29 437.325/437.525
NANOSAT C BR1 12 Feb 11:58:02 11:59:59 13° 270° (W) 12:01:57 145.865
DUCHIFAT 1 12 Feb 11:58:03 12:00:08 13° 270° (W) 12:02:13 145.980
ITAMSAT 1 12 Feb 11:58:22 11:59:47 11° 53° (NE) 12:01:13 435.822/435.867
RS-15 12 Feb 12:17:12 12:28:25 74° 311° (NW) 12:40:21 29.354- 29.394
Oscar 19 12 Feb 12:18:11 12:23:19 66° 72° (ENE) 12:28:27 437.125/150
VELOX 1 12 Feb 12:22:02 12:26:09 39° 291° (WNW) 12:30:14 145.980
DANDE 12 Feb 12:35:48 12:42:53 71° 76° (ENE) 12:48:09 436.750
UKube-1 12 Feb 12:36:51 12:40:39 30° 293° (WNW) 12:44:25 .
TISAT 1 12 Feb 12:39:24 12:43:22 40° 98° (E) 12:47:18 437.305
AISAT 12 Feb 12:39:35 12:43:14 26° 295° (WNW) 12:46:53 437.250
SPROUT 12 Feb 12:40:55 12:45:12 72° 285° (WNW) 12:49:25 437.525
CUBEBUG 1 12 Feb 12:51:18 12:54:47 24° 295° (WNW) 12:58:15 437.445
DX 1 12 Feb 12:54:28 12:57:31 19° 298° (WNW) 13:00:34 434.975-435.025
YUBILEINY 12 Feb 13:00:18 13:08:29 39° 69° (ENE) 13:16:36 435.215
ITUPSAT 1 12 Feb 13:01:26 13:04:05 15° 89° (E) 13:06:42 437.325
BEESAT 12 Feb 13:07:39 13:10:46 17° 91° (E) 13:13:52 436.000
Gurwin Techsat 1B 12 Feb 13:11:28 13:16:46 77° 73° (ENE) 13:22:07 435.225
Cosmos 2491 12 Feb 13:12:56 13:18:40 20° 76° (ENE) 13:24:23 435.465 / 435.565
ESTCUBE 1 12 Feb 13:13:52 13:16:01 13° 302° (WNW) 13:18:09 437.505/2401.250
AO-7 12 Feb 13:15:39 13:22:42 32° 53° (NE) 13:29:45 29.400- 29.500
JAS-2 12 Feb 13:20:08 13:27:36 61° 259° (W) 13:34:21 435.910
AO-85 12 Feb 13:22:24 13:24:14 12° 346° (NNW) 13:26:03 145.980
CUSAT 1 12 Feb 13:22:55 13:27:26 25° 276° (W) 13:31:03 437.405
SO-50 12 Feb 13:24:13 13:28:49 45° 241° (WSW) 13:33:14 436.795
PCSat 12 Feb 13:32:22 13:33:36 11° 338° (NNW) 13:34:51 145.827
ITAMSAT 1 12 Feb 13:33:09 13:38:17 67° 71° (ENE) 13:43:28 435.822/435.867
M-CUBED/EXP-1 PRIME 12 Feb 13:47:53 13:49:00 11° 57° (ENE) 13:50:07 437.505
AUBIESAT-1 12 Feb 13:55:06 13:56:13 11° 57° (ENE) 13:57:19 437.475
SWISSCUBE 12 Feb 13:59:15 14:04:00 57° 101° (E) 14:08:43 437.505
Oscar 19 12 Feb 13:59:43 14:03:06 17° 270° (W) 14:06:31 437.125/150
TISAT 1 12 Feb 14:15:41 14:18:47 21° 296° (WNW) 14:21:53 437.305
DANDE 12 Feb 14:20:11 14:24:43 19° 282° (WNW) 14:28:33 436.750
HORYU 2 12 Feb 14:29:27 14:32:44 21° 63° (ENE) 14:36:01 437.375
RS-15 12 Feb 14:33:00 14:43:17 35° 341° (NNW) 14:54:03 29.354- 29.394
ITUPSAT 1 12 Feb 14:37:37 14:42:26 72° 287° (WNW) 14:47:13 437.325
Cosmos 2504 12 Feb 14:41:54 14:49:48 37° 68° (ENE) 14:57:11 435.465 / 435.565
BEESAT 12 Feb 14:44:13 14:48:58 61° 288° (WNW) 14:53:41 436.000
Gurwin Techsat 1B 12 Feb 14:54:16 14:57:20 15° 271° (W) 15:00:25 435.225
YUBILEINY 12 Feb 14:57:05 15:05:34 53° 271° (W) 15:13:58 435.215
Cosmos 2491 12 Feb 15:05:29 15:14:13 88° 100° (E) 15:23:00 435.465 / 435.565
AO-85 12 Feb 15:05:52 15:07:17 11° 11° (NNE) 15:08:40 145.980
AO-7 12 Feb 15:06:29 15:14:51 72° 254° (WSW) 15:23:15 29.400- 29.500
JAS-2 12 Feb 15:11:57 15:13:43 11° 276° (W) 15:15:26 435.910
STARS 12 Feb 15:12:41 15:16:13 23° 94° (E) 15:19:43 437.465
ITAMSAT 1 12 Feb 15:14:50 15:18:14 18° 270° (W) 15:21:41 435.822/435.867
ISS 12 Feb 15:18:32 15:21:45 63° 148° (SSE) 15:24:59 145.825
M-CUBED/EXP-1 PRIME 12 Feb 15:19:48 15:23:18 58° 253° (WSW) 15:26:39 437.505
AUBIESAT-1 12 Feb 15:26:56 15:30:26 59° 253° (WSW) 15:33:47 437.475
CUTE-I 12 Feb 15:36:03 15:37:53 12° 53° (NE) 15:39:43 437.470
KKS-1 12 Feb 15:36:56 15:41:23 75° 103° (ESE) 15:45:48 437.445
SWISSCUBE 12 Feb 15:37:57 15:41:24 20° 299° (WNW) 15:44:50 437.505
Cubesat XI-IV 12 Feb 15:49:23 15:52:21 15° 56° (NE) 15:55:20 437.490
MOZHAYETS 4 12 Feb 15:51:34 15:56:02 45° 98° (E) 16:00:29
O/OREOS (USA 219) 12 Feb 15:59:05 16:02:56 26° 54° (NE) 16:06:47 437.305
BEESAT 3 12 Feb 16:01:31 16:05:03 31° 117° (ESE) 16:08:37 437.485
HORYU 2 12 Feb 16:04:47 16:09:01 45° 261° (W) 16:13:17 437.375
LilacSat-2 12 Feb 16:07:53 16:08:29 10° 60° (ENE) 16:09:05 437.200
ITUPSAT 1 12 Feb 16:18:22 16:19:25 11° 305° (NW) 16:20:27 437.325
BEESAT 2 12 Feb 16:30:50 16:34:37 40° 119° (ESE) 16:38:25 435.950
Cosmos 2504 12 Feb 16:35:14 16:43:31 54° 271° (W) 16:51:16 435.465 / 435.565
CUBESAT XI-V 12 Feb 16:41:21 16:44:26 17° 90° (E) 16:47:29 437.345
AO-85 12 Feb 16:45:24 16:49:46 25° 35° (NE) 16:53:51 145.980
STARS 12 Feb 16:48:40 16:52:42 37° 291° (WNW) 16:56:43 437.465
RS-15 12 Feb 16:49:44 17:00:12 34° 16° (NNE) 17:10:58 29.354- 29.394
BRITE-PL 12 Feb 16:53:37 16:58:23 29° 65° (ENE) 17:03:00 437.365/2234.400
ISS 12 Feb 16:55:19 16:58:21 35° 347° (NNW) 17:01:23 145.825
PCSat 12 Feb 17:02:29 17:05:52 16° 32° (NNE) 17:09:14 145.827
AO-7 12 Feb 17:04:38 17:09:04 15° 274° (W) 17:13:33 29.400- 29.500
Cosmos 2491 12 Feb 17:05:48 17:12:20 23° 300° (WNW) 17:18:54 435.465 / 435.565
CUTE-I 12 Feb 17:11:41 17:16:58 69° 72° (ENE) 17:22:18 437.470
DOVE 4 12 Feb 17:13:38 17:15:21 12° 59° (ENE) 17:17:03 437.250
AIST 2 12 Feb 17:13:45 17:15:46 13° 110° (ESE) 17:17:47 435.215
KKS-1 12 Feb 17:15:08 17:17:23 14° 301° (WNW) 17:19:39 437.445
Cubesat XI-IV 12 Feb 17:26:20 17:31:40 89° 67° (ENE) 17:37:04 437.490
MOZHAYETS 4 12 Feb 17:29:20 17:32:57 23° 296° (WNW) 17:36:33
O/OREOS (USA 219) 12 Feb 17:38:10 17:42:29 41° 253° (WSW) 17:46:48 437.305
LilacSat-2 12 Feb 17:38:26 17:42:14 77° 259° (WSW) 17:46:03 437.200
BEESAT 3 12 Feb 17:39:13 17:42:48 31° 315° (NW) 17:46:23 437.485
GOMX 1 12 Feb 17:43:49 17:48:46 40° 69° (ENE) 17:53:27 467.674
CANX-2 12 Feb 17:55:43 17:57:12 12° 59° (ENE) 17:58:40 2200.000
HO-68 12 Feb 18:02:40 18:08:45 31° 58° (ENE) 18:14:51 435.675
BEESAT 2 12 Feb 18:09:14 18:12:38 26° 318° (NW) 18:16:05 435.950
CUBESAT XI-V 12 Feb 18:17:34 18:22:12 58° 288° (WNW) 18:26:47 437.345
AO-85 12 Feb 18:25:39 18:30:52 73° 237° (WSW) 18:35:37 145.980
GONETS M04 12 Feb 18:26:01 18:33:48 33° 66° (ENE) 18:41:34
COMPASS 1 12 Feb 18:26:41 18:28:24 12° 60° (ENE) 18:30:06 437.405
BRITE-PL 12 Feb 18:31:10 18:36:39 47° 262° (W) 18:41:55 437.365/2234.400
ISS 12 Feb 18:32:25 18:35:20 30° 7° (N) 18:38:15 145.825
STRAND 1 12 Feb 18:33:57 18:38:26 29° 95° (E) 18:42:54 437.568
CUTE 1.7 + AOD 2 12 Feb 18:43:13 18:46:52 30° 68° (ENE) 18:50:34 437.475
SEEDS 12 Feb 18:44:29 18:47:50 24° 66° (ENE) 18:51:13 437.485
PCSat 12 Feb 18:44:57 18:50:22 64° 54° (NE) 18:55:45 145.827
DOVE 4 12 Feb 18:47:22 18:52:23 81° 76° (ENE) 18:57:08 437.250
AIST 2 12 Feb 18:49:33 18:53:43 73° 307° (NW) 18:57:54 435.215
AAUSAT CUBESAT 2 12 Feb 18:51:06 18:53:54 18° 63° (ENE) 18:56:43 437.432
CUTE-I 12 Feb 18:54:01 18:57:32 18° 270° (W) 19:01:04 437.470
UWE-3 12 Feb 19:03:02 19:04:36 12° 60° (ENE) 19:06:09 435.000/436.395/437.385
RS-15 12 Feb 19:03:27 19:15:31 66° 46° (NE) 19:27:47 29.354- 29.394
CUBEBUG 2 12 Feb 19:07:24 19:10:15 18° 64° (ENE) 19:13:05 437.445
Cubesat XI-IV 12 Feb 19:10:06 19:12:30 13° 273° (W) 19:14:54 437.490
CINEMA 3 12 Feb 19:19:35 19:24:04 61° 74° (ENE) 19:28:22 145.822/145.860
GOMX 1 12 Feb 19:22:16 19:26:54 30° 265° (W) 19:31:21 467.674
CANX-2 12 Feb 19:28:12 19:32:25 83° 257° (WSW) 19:36:42 2200.000
Cosmos 2499 12 Feb 19:34:02 19:41:42 37° 68° (ENE) 19:48:49 435.465 / 435.565
DELFI C3 12 Feb 19:41:16 19:43:22 14° 62° (ENE) 19:45:28 145.870
ZACube-1 12 Feb 19:47:57 19:51:17 23° 66° (ENE) 19:54:35 437.345
HO-68 12 Feb 19:48:56 19:56:02 63° 257° (WSW) 20:03:12 435.675
FUNcube-1 12 Feb 19:55:11 19:58:39 26° 67° (ENE) 20:02:07 145.935
COMPASS 1 12 Feb 19:59:14 20:03:23 76° 258° (WSW) 20:07:35 437.405
PRISM 12 Feb 20:06:26 20:10:38 74° 102° (ESE) 20:14:47 437.425
ISS 12 Feb 20:08:51 20:12:07 77° 26° (NNE) 20:15:21 145.825
STRAND 1 12 Feb 20:12:54 20:17:42 40° 293° (WNW) 20:22:28 437.568
CUTE 1.7 + AOD 2 12 Feb 20:19:06 20:22:43 27° 265° (W) 20:26:21 437.475
SEEDS 12 Feb 20:19:35 20:23:24 34° 264° (W) 20:27:16 437.485
Oscar 11 12 Feb 20:22:23 20:26:39 68° 73° (ENE) 20:30:57 145.826/435.025
GONETS M04 12 Feb 20:22:34 20:31:12 63° 268° (W) 20:39:51
AAUSAT CUBESAT 2 12 Feb 20:25:04 20:29:03 48° 261° (W) 20:33:07 437.432
DOVE 4 12 Feb 20:28:22 20:30:35 13° 271° (W) 20:32:46 437.250
PCSat 12 Feb 20:29:15 20:33:17 22° 253° (WSW) 20:37:18 145.827
AIST 2 12 Feb 20:30:37 20:32:57 14° 328° (NNW) 20:35:18 435.215
UWE-3 12 Feb 20:36:17 20:40:30 78° 258° (WSW) 20:44:41 435.000/436.395/437.385
CUBEBUG 2 12 Feb 20:42:26 20:46:34 48° 260° (W) 20:50:39 437.445
AIST 1 12 Feb 20:55:43 20:59:59 52° 77° (ENE) 21:04:12
CINEMA 3 12 Feb 20:59:05 21:01:35 15° 270° (W) 21:04:02 145.822/145.860
ESTCUBE 1 12 Feb 21:03:07 21:05:15 13° 58° (ENE) 21:07:23 437.505/2401.250
DELFI C3 12 Feb 21:13:53 21:17:49 59° 259° (W) 21:21:48 145.870
HUMSAT D 12 Feb 21:14:25 21:18:25 57° 73° (ENE) 21:22:26 437.325/437.525
RS-15 12 Feb 21:16:26 21:27:39 46° 250° (WSW) 21:39:00 29.354- 29.394
ZACube-1 12 Feb 21:23:37 21:27:26 34° 263° (W) 21:31:15 437.345
Cosmos 2499 12 Feb 21:27:07 21:35:10 53° 270° (W) 21:42:35 435.465 / 435.565
FUNcube-1 12 Feb 21:31:10 21:34:50 30° 264° (W) 21:38:31 145.935
PRISM 12 Feb 21:43:32 21:45:24 13° 301° (WNW) 21:47:14 437.425
HO-68 12 Feb 21:43:35 21:45:11 11° 277° (W) 21:46:48 435.675
VELOX 1 12 Feb 21:45:36 21:49:24 28° 66° (ENE) 21:53:14 145.980
ISS 12 Feb 21:45:58 21:48:14 18° 224° (SW) 21:50:29 145.825
UNISAT 6 12 Feb 21:55:11 21:59:02 30° 96° (E) 22:02:56 437.425
UKube-1 12 Feb 21:57:38 22:01:32 33° 67° (ENE) 22:05:27 .
Oscar 11 12 Feb 22:01:24 22:03:15 13° 271° (W) 22:05:08 145.826/435.025
AISAT 12 Feb 22:02:23 22:06:36 42° 70° (ENE) 22:10:50 437.250
SPROUT 12 Feb 22:03:19 22:05:31 14° 60° (ENE) 22:07:43 437.525
CUBEBUG 1 12 Feb 22:12:39 22:16:51 43° 70° (ENE) 22:21:03 437.445
QB50P1 12 Feb 22:13:42 22:14:56 11° 88° (E) 22:16:10 145.935-145.965
DX 1 12 Feb 22:14:59 22:19:17 59° 72° (ENE) 22:23:38 434.975-435.025
50 SAT 12 Feb 22:22:32 22:26:14 78° 75° (ENE) 22:29:59 437.505
GONETS M04 12 Feb 22:22:53 22:26:06 12° 290° (WNW) 22:29:20
AIST 1 12 Feb 22:34:36 22:37:08 15° 276° (W) 22:39:39
ESTCUBE 1 12 Feb 22:36:53 22:41:26 82° 258° (WSW) 22:46:00 437.505/2401.250
ANTELSAT 12 Feb 22:39:49 22:44:12 86° 108° (ESE) 22:48:39 437.575/2403.000
TIGRISAT 12 Feb 22:45:34 22:49:55 87° 290° (WNW) 22:54:22 435.000
BUGSAT 1 12 Feb 22:51:01 22:52:59 13° 90° (E) 22:54:56 437.445
HUMSAT D 12 Feb 22:52:27 22:54:27 13° 270° (W) 22:56:28 437.325/437.525
POLYITAN 1 12 Feb 23:05:26 23:09:25 40° 98° (E) 23:13:23 437.675
QB50P2 12 Feb 23:05:53 23:09:55 41° 98° (E) 23:13:55 145.880/145.840
BEESAT 2 12 Feb 23:10:29 23:11:58 12° 29° (NNE) 23:13:26 435.950
Cosmos 2491 12 Feb 23:19:06 23:21:54 12° 48° (NE) 23:24:42 435.465 / 435.565
VELOX 1 12 Feb 23:21:47 23:25:48 32° 263° (W) 23:29:51 145.980
UNISAT 6 12 Feb 23:31:57 23:35:43 29° 293° (WNW) 23:39:33 437.425
TISAT 1 12 Feb 23:33:18 23:37:17 42° 70° (ENE) 23:41:16 437.305
SWISSCUBE 12 Feb 23:33:44 23:35:40 12° 56° (NE) 23:37:37 437.505
UKube-1 12 Feb 23:34:01 23:37:38 26° 265° (W) 23:41:16 .
POPSAT HIP 1 12 Feb 23:34:41 23:38:54 81° 104° (ESE) 23:43:06 437.405
SPROUT 12 Feb 23:36:41 23:40:58 70° 258° (WSW) 23:45:16 437.525
DUCHIFAT 1 12 Feb 23:37:12 23:41:24 81° 105° (ESE) 23:45:35 145.980
NANOSAT C BR1 12 Feb 23:37:16 23:41:29 85° 102° (ESE) 23:45:41 145.865
AISAT 12 Feb 23:39:51 23:43:16 21° 267° (W) 23:46:43 437.250
QB50P1 12 Feb 23:47:02 23:51:14 74° 286° (WNW) 23:55:25 145.935-145.965
CUBEBUG 1 12 Feb 23:49:58 23:53:19 21° 267° (W) 23:56:41 437.445
DX 1 12 Feb 23:53:19 23:55:53 15° 269° (W) 23:58:26 434.975-435.025
DANDE 13 Feb 00:04:50 00:09:51 18° 77° (ENE) 00:14:58 436.750
PHONESAT 2.4 13 Feb 00:09:44 00:12:17 21° 163° (SSE) 00:14:48 2401.200-2431.200
ITUPSAT 1 13 Feb 00:10:11 00:13:55 23° 63° (ENE) 00:17:41 437.325
BEESAT 13 Feb 00:16:09 00:20:06 26° 64° (ENE) 00:24:04 436.000
BEESAT 3 13 Feb 00:16:33 00:20:22 43° 48° (NE) 00:24:08 437.485
ANTELSAT 13 Feb 00:18:40 00:20:18 12° 301° (WNW) 00:21:57 437.575/2403.000
BUGSAT 1 13 Feb 00:24:48 00:28:46 56° 287° (WNW) 00:32:42 437.445
TIGRISAT 13 Feb 00:24:50 00:25:58 11° 302° (WNW) 00:27:06 435.000
Oscar 19 13 Feb 00:28:12 00:31:49 19° 91° (E) 00:35:24 437.125/150
JAS-2 13 Feb 00:29:40 00:32:32 14° 86° (E) 00:35:19 435.910
POLYITAN 1 13 Feb 00:41:50 00:45:01 21° 295° (WNW) 00:48:10 437.675
QB50P2 13 Feb 00:42:21 00:45:29 20° 296° (WNW) 00:48:35 145.880/145.840
CUSAT 1 13 Feb 00:42:31 00:50:12 49° 92° (E) 00:57:35 437.405
BEESAT 2 13 Feb 00:46:47 00:50:44 55° 50° (NE) 00:54:39 435.950
KKS-1 13 Feb 01:03:59 01:05:39 12° 58° (ENE) 01:07:19 437.445
SWISSCUBE 13 Feb 01:07:56 01:12:43 85° 73° (ENE) 01:17:32 437.505
TISAT 1 13 Feb 01:10:06 01:13:09 19° 267° (W) 01:16:13 437.305
POPSAT HIP 1 13 Feb 01:12:34 01:14:05 12° 301° (WNW) 01:15:36 437.405
Cosmos 2491 13 Feb 01:12:51 01:21:21 51° 73° (ENE) 01:29:49 435.465 / 435.565
DUCHIFAT 1 13 Feb 01:15:01 01:16:30 12° 301° (WNW) 01:17:59 145.980
NANOSAT C BR1 13 Feb 01:15:19 01:16:36 11° 301° (WNW) 01:17:53 145.865
Gurwin Techsat 1B 13 Feb 01:25:44 01:30:06 25° 93° (E) 01:34:27 435.225
AIST 2 13 Feb 01:30:50 01:34:13 23° 40° (NE) 01:37:33 435.215
DANDE 13 Feb 01:43:25 01:51:29 74° 97° (E) 01:59:55 436.750
ITAMSAT 1 13 Feb 01:44:23 01:48:07 19° 91° (E) 01:51:50 435.822/435.867
PHONESAT 2.4 13 Feb 01:46:06 01:49:03 31° 180° (S) 01:52:00 2401.200-2431.200
ITUPSAT 1 13 Feb 01:46:54 01:51:29 46° 261° (W) 01:56:08 437.325
BEESAT 13 Feb 01:53:15 01:57:43 40° 262° (W) 02:02:14 436.000
BEESAT 3 13 Feb 01:54:51 01:57:52 21° 246° (WSW) 02:00:52 437.485
YUBILEINY 13 Feb 02:04:33 02:12:31 41° 85° (E) 02:20:32 435.215
Oscar 19 13 Feb 02:06:29 02:11:33 60° 289° (WNW) 02:16:34 437.125/150
STARS 13 Feb 02:11:38 02:15:25 29° 66° (ENE) 02:19:12 437.465
JAS-2 13 Feb 02:12:51 02:18:30 78° 288° (WNW) 02:23:44 435.910
CUSAT 1 13 Feb 02:24:53 02:32:34 44° 289° (WNW) 02:39:54 437.405
BEESAT 2 13 Feb 02:25:43 02:28:14 16° 248° (WSW) 02:30:44 435.950
KKS-1 13 Feb 02:37:05 02:41:33 89° 240° (WSW) 02:46:02 437.445
SWISSCUBE 13 Feb 02:49:26 02:51:10 12° 272° (W) 02:52:54 437.505
MOZHAYETS 4 13 Feb 02:55:37 03:00:04 56° 72° (ENE) 03:04:36
Gurwin Techsat 1B 13 Feb 03:05:10 03:10:17 48° 291° (WNW) 03:15:22 435.225
AO-7 13 Feb 03:05:41 03:13:05 34° 96° (E) 03:20:24 29.400- 29.500
AIST 2 13 Feb 03:08:57 03:12:58 51° 240° (WSW) 03:16:57 435.215
Cosmos 2491 13 Feb 03:10:05 03:17:58 40° 275° (W) 03:25:53 435.465 / 435.565
ITAMSAT 1 13 Feb 03:22:50 03:28:00 61° 289° (WNW) 03:33:09 435.822/435.867
Cosmos 2504 13 Feb 03:23:14 03:30:20 29° 81° (E) 03:37:35 435.465 / 435.565
PHONESAT 2.4 13 Feb 03:23:17 03:25:50 21° 197° (SSW) 03:28:23 2401.200-2431.200
DANDE 13 Feb 03:28:05 03:35:12 31° 297° (WNW) 03:42:27 436.750
SO-50 13 Feb 03:40:17 03:44:42 35° 116° (ESE) 03:49:11 436.795
CUBESAT XI-V 13 Feb 03:46:51 03:50:31 23° 64° (ENE) 03:54:13 437.345
STARS 13 Feb 03:47:50 03:51:43 31° 263° (W) 03:55:38 437.465
HORYU 2 13 Feb 03:53:21 03:57:11 27° 96° (E) 04:00:59 437.375
JAS-2 13 Feb 04:00:07 04:02:33 13° 309° (NW) 04:04:54 435.910
YUBILEINY 13 Feb 04:00:39 04:09:07 51° 287° (WNW) 04:17:42 435.215
CUSAT 1 13 Feb 04:15:07 04:16:49 11° 310° (NW) 04:18:29 437.405
M-CUBED/EXP-1 PRIME 13 Feb 04:30:54 04:34:17 59° 107° (ESE) 04:37:53 437.505
MOZHAYETS 4 13 Feb 04:34:38 04:37:37 17° 270° (W) 04:40:37
AUBIESAT-1 13 Feb 04:37:28 04:40:55 58° 107° (ESE) 04:44:33 437.475
AO-7 13 Feb 04:58:06 05:06:17 62° 296° (WNW) 05:14:23 29.400- 29.500
ITAMSAT 1 13 Feb 05:05:47 05:06:26 10° 308° (NW) 05:07:05 435.822/435.867
Cosmos 2504 13 Feb 05:14:17 05:22:58 71° 282° (WNW) 05:31:54 435.465 / 435.565
SO-50 13 Feb 05:20:32 05:25:10 40° 315° (NW) 05:29:52 436.795
CUBESAT XI-V 13 Feb 05:23:08 05:27:38 45° 262° (W) 05:32:12 437.345
CUTE-I 13 Feb 05:26:55 05:31:05 23° 92° (E) 05:35:15 437.470
HORYU 2 13 Feb 05:29:47 05:33:46 33° 293° (WNW) 05:37:46 437.375
Cubesat XI-IV 13 Feb 05:41:26 05:46:08 30° 95° (E) 05:50:49 437.490
STRAND 1 13 Feb 05:52:00 05:56:58 53° 70° (ENE) 06:01:59 437.568
YUBILEINY 13 Feb 06:05:46 06:08:36 12° 313° (NW) 06:11:27 435.215
M-CUBED/EXP-1 PRIME 13 Feb 06:07:19 06:08:36 12° 303° (WNW) 06:09:53 437.505
AUBIESAT-1 13 Feb 06:13:42 06:15:09 12° 303° (WNW) 06:16:37 437.475
O/OREOS (USA 219) 13 Feb 06:15:13 06:18:01 16° 100° (E) 06:20:51 437.305
BRITE-PL 13 Feb 06:34:10 06:38:43 49° 98° (E) 06:42:56 437.365/2234.400
LilacSat-2 13 Feb 06:43:44 06:47:30 69° 285° (WNW) 06:51:16 437.200
DOVE 4 13 Feb 06:45:20 06:47:53 16° 90° (E) 06:50:24 437.250
AO-7 13 Feb 06:52:31 06:57:27 17° 318° (NW) 07:02:23 29.400- 29.500
PRISM 13 Feb 06:57:59 07:02:08 74° 75° (ENE) 07:06:21 437.425
SO-50 13 Feb 07:04:49 07:07:01 13° 338° (NNW) 07:09:14 436.795
CUTE-I 13 Feb 07:06:13 07:11:28 55° 290° (WNW) 07:16:42 437.470
CANX-2 13 Feb 07:12:07 07:14:35 15° 90° (E) 07:17:03 2200.000
Cosmos 2504 13 Feb 07:12:35 07:18:12 18° 305° (NW) 07:23:53 435.465 / 435.565
CINEMA 3 13 Feb 07:14:18 07:15:09 11° 88° (E) 07:16:02 145.822/145.860
HO-68 13 Feb 07:14:39 07:20:12 23° 91° (E) 07:25:43 435.675
GOMX 1 13 Feb 07:21:16 07:25:40 74° 102° (ESE) 07:29:51 467.674
Cubesat XI-IV 13 Feb 07:21:17 07:26:20 42° 293° (WNW) 07:31:21 437.490
GONETS M04 13 Feb 07:31:01 07:38:28 33° 83° (E) 07:45:56
STRAND 1 13 Feb 07:32:36 07:36:28 21° 268° (W) 07:40:23 437.568
COMPASS 1 13 Feb 07:41:02 07:43:29 15° 90° (E) 07:45:55 437.405
O/OREOS (USA 219) 13 Feb 07:52:32 07:56:57 57° 298° (WNW) 08:01:26 437.305
SEEDS 13 Feb 08:00:50 08:04:40 31° 96° (E) 08:08:29 437.485
CUTE 1.7 + AOD 2 13 Feb 08:00:52 08:04:57 41° 98° (E) 08:09:02 437.475
AAUSAT CUBESAT 2 13 Feb 08:05:26 08:08:45 22° 93° (E) 08:12:02 437.432
ANTELSAT 13 Feb 08:07:35 08:09:11 12° 59° (ENE) 08:10:47 437.575/2403.000
Oscar 11 13 Feb 08:09:49 08:10:44 11° 87° (E) 08:11:39 145.826/435.025
TIGRISAT 13 Feb 08:12:49 08:14:43 13° 60° (ENE) 08:16:38 435.000
Cosmos 2499 13 Feb 08:13:24 08:20:33 29° 81° (E) 08:27:44 435.465 / 435.565
BRITE-PL 13 Feb 08:13:26 08:16:49 20° 299° (WNW) 08:20:02 437.365/2234.400
DOVE 4 13 Feb 08:21:52 08:25:58 49° 288° (WNW) 08:29:57 437.250
UWE-3 13 Feb 08:24:12 08:26:59 17° 92° (E) 08:29:48 435.000/436.395/437.385
